Regional Weather Roundup
Issued by NWS

Home | Current Version | Previous Version | Text Only | Print | Product List | Glossary Off
Versions: 1 2 3 4 5 6 7 8 9 10 11 12 13 14 15 16 17 18 19 20 21 22 23 24 25 26 27 28 29 30 31 32 33 34 35 36 37 38 39 40 41 42 43 44 45 46 47 48 49 50

000
ASUS43 KOAX 170210
RWRNE

WEATHER ROUNDUP FOR NEBRASKA
NATIONAL WEATHER SERVICE OMAHA NE
900 PM CDT WED APR 16 2014

NOTES: SATELLITE DATA IS BEING USED TO AUGMENT CLOUD COVER ABOVE
       12000 FEET.
       "FAIR" INDICATES FEW OR NO CLOUDS BELOW 12,000 FEET WITH NO
       SIGNIFICANT WEATHER AND/OR OBSTRUCTIONS TO VISIBILITY.

  * THESE STATIONS DO NOT REPORT WEATHER SUCH AS RAIN...SNOW OR FOG.

NEZ001>004-019>022-054>056-170300-
NEBRASKA PANHANDLE

CITY           SKY/WX    TMP DP  RH WIND       PRES   REMARKS
SCOTTSBLUFF    PTCLDY    42  30  62 NE12      30.03R
ALLIANCE       CLEAR     34  29  82 NE12      30.05R WCI  25
CHADRON        PTCLDY    39  32  76 E7        30.08R WCI  34
KIMBALL        PTCLDY    38  26  62 E7        30.02R WCI  33
SIDNEY         CLEAR     41  27  57 NE14      30.04R
$$

NEZ057>060-069>072-079>082-170300-
SOUTHWEST NEBRASKA

CITY           SKY/WX    TMP DP  RH WIND       PRES   REMARKS
NORTH PLATTE   CLOUDY    37  28  70 N12G17    30.09R WCI  29
IMPERIAL       MOCLDY    41  32  70 NE9       30.06R
LEXINGTON      PTCLDY    38  30  74 N16       30.08R WCI  29
MCCOOK         CLOUDY    45  34  65 N10       30.06R
OGALLALA       CLEAR     38  31  74 NE14      30.06R WCI  30
$$

NEZ005>010-023>029-035>040-094-170300-
NORTH CENTRAL NEBRASKA

CITY           SKY/WX    TMP DP  RH WIND       PRES   REMARKS
VALENTINE      CLOUDY    31  25  78 N13       30.12R WCI  21
AINSWORTH      CLOUDY    32  26  79 N16G23    30.12R WCI  21
BROKEN BOW     CLOUDY    33  27  78 N18       30.09R WCI  22
O`NEILL        CLOUDY    32  24  71 N17G31    30.11R WCI  21
ORD            CLOUDY    33  25  72 N22       30.10R WCI  21
THEDFORD       CLOUDY    34  28  80 N10       30.12R WCI  26
$$

NEZ041-046>049-061>064-073>077-083>087-170300-
SOUTH CENTRAL NEBRASKA

CITY           SKY/WX    TMP DP  RH WIND       PRES   REMARKS
GRAND ISLAND   CLOUDY    37  27  67 N22       30.09R WCI  26
AURORA         CLOUDY    37  29  71 N22       30.07R WCI  26
HASTINGS       MOCLDY    37  28  70 N20G29    30.06R WCI  27
HEBRON         PTCLDY    40  30  67 N15G23    30.05R WCI  32
HOLDREGE       MOCLDY    38  31  73 N18G25    30.06R WCI  29
KEARNEY *      MOCLDY    37  28  70 N22       30.08R WCI  27
YORK           MOCLDY    36  28  75 NW17      30.06R WCI  25
$$

NEZ011>018-030>034-042>045-170300-
NORTHEAST NEBRASKA

CITY           SKY/WX    TMP DP  RH WIND       PRES   REMARKS
NORFOLK        CLOUDY    35  25  66 N21G28    30.05R WCI  24
ALBION         CLOUDY    35  26  67 N17G28    30.06R WCI  25
BLAIR          CLOUDY    37  30  78 NW21G32   29.98R WCI  26
COLUMBUS *     CLOUDY    36  23  60 NW20G30   30.04R WCI  25
FREMONT        CLOUDY    38  30  74 NW23G29   30.03R WCI  27
TEKAMAH        CLOUDY    38  30  73 NW26G35   30.00R WCI  26
$$

NEZ050>053-065>068-078-088>093-170300-
SOUTHEAST NEBRASKA

CITY           SKY/WX    TMP DP  RH WIND       PRES   REMARKS
LINCOLN        CLOUDY    42  28  57 NW22      30.04R
OMAHA EPPLEY   CLOUDY    39  31  72 NW25G35   29.98R WCI  28
BEATRICE       CLEAR     40  30  66 NW22      30.03R WCI  30
FALLS CITY     MOCLDY    45  33  63 NW22G33   29.97R
NEBRASKA CITY  PTCLDY    40  32  71 NW21G29   29.99R WCI  30
PLATTSMOUTH    MOCLDY    39  30  70 NW24G35   29.98R WCI  28
$$

NEZ044-045-051>053-067-170300-
OMAHA AREA

CITY           SKY/WX    TMP DP  RH WIND       PRES   REMARKS
OMAHA EPPLEY   CLOUDY    39  31  72 NW25G35   29.98R WCI  28
BLAIR          CLOUDY    37  30  78 NW21G32   29.98R WCI  26
FREMONT        CLOUDY    38  30  74 NW23G29   30.03R WCI  27
MILLARD        CLOUDY    39  30  71 NW16G31   30.00R WCI  30
OFFUTT AFB     MOCLDY    39  32  76 NW20G36   29.99R WCI  29
PLATTSMOUTH    MOCLDY    39  30  70 NW24G35   29.98R WCI  28
WAHOO          CLOUDY    38  28  66 NW21G29   30.02R WCI  28
$$



USA.gov is the U.S. government's official web portal to all federal, state and local government web resources and services.